GLO9569 SGAS-SBGL

Flight info

Callsign GLO9569
Flight time 1h 43m
Altitude 41000
Route ROLOK UM548 KOXAG UM400 KOLBI
Aircraft B738/M-SDFGIKLORWXY/LB1

Departure

Time 2026-04-29 07:44
Airport Silvio Pettirossi International Airport (SGAS)

Arrival

Time 2026-04-29 09:27
Airport Rio Galeão – Tom Jobim International Airport (SBGL)
Time Latitude Longitude Altitude Speed Heading
2026-04-29 07:37 -25.24054 -57.51517 277 ft 0 kts 173°
2026-04-29 07:37 -25.24046 -57.51518 277 ft 4 kts 174°
2026-04-29 07:38 -25.24019 -57.51519 279 ft 4 kts 187°
2026-04-29 07:38 -25.23996 -57.51510 279 ft 4 kts 234°
2026-04-29 07:38 -25.23992 -57.51504 281 ft 0 kts 244°
2026-04-29 07:40 -25.23997 -57.51514 279 ft 5 kts 245°
2026-04-29 07:40 -25.24035 -57.51585 277 ft 10 kts 243°
2026-04-29 07:41 -25.23994 -57.51646 277 ft 11 kts 328°
2026-04-29 07:41 -25.23903 -57.51675 277 ft 17 kts 10°
2026-04-29 07:41 -25.23762 -57.51640 277 ft 23 kts 12°
2026-04-29 07:41 -25.23604 -57.51601 277 ft 23 kts 12°
2026-04-29 07:42 -25.23450 -57.51563 277 ft 22 kts 12°
2026-04-29 07:42 -25.23300 -57.51526 277 ft 22 kts 12°
2026-04-29 07:42 -25.23158 -57.51490 277 ft 17 kts 12°
2026-04-29 07:42 -25.23081 -57.51539 275 ft 16 kts 283°
2026-04-29 07:43 -25.23062 -57.51666 271 ft 18 kts 254°
2026-04-29 07:43 -25.23180 -57.51715 273 ft 24 kts 192°
2026-04-29 07:43 -25.23626 -57.51823 273 ft 110 kts 192°
2026-04-29 07:43 -25.24623 -57.52066 323 ft 178 kts 192°
2026-04-29 07:44 -25.25947 -57.52394 805 ft 209 kts 193°
2026-04-29 07:44 -25.27403 -57.52757 1584 ft 219 kts 193°
2026-04-29 07:44 -25.28951 -57.53138 2234 ft 242 kts 192°
2026-04-29 07:44 -25.30687 -57.53569 2908 ft 264 kts 193°
2026-04-29 07:45 -25.32535 -57.53789 4004 ft 272 kts 170°
2026-04-29 07:45 -25.34257 -57.52981 5124 ft 275 kts 143°
2026-04-29 07:45 -25.35533 -57.51395 6106 ft 283 kts 116°
2026-04-29 07:45 -25.36049 -57.49279 7039 ft 288 kts 92°
2026-04-29 07:46 -25.36110 -57.47043 8013 ft 294 kts 88°
2026-04-29 07:46 -25.36097 -57.44757 9003 ft 300 kts 86°
2026-04-29 07:46 -25.36067 -57.42456 9981 ft 306 kts 85°
2026-04-29 07:46 -25.36036 -57.40052 10643 ft 324 kts 85°
2026-04-29 07:47 -25.36006 -57.37443 10862 ft 355 kts 86°
2026-04-29 07:47 -25.35982 -57.34610 11202 ft 377 kts 86°
2026-04-29 07:47 -25.35969 -57.31733 11926 ft 385 kts 87°
2026-04-29 07:47 -25.35963 -57.28697 12829 ft 388 kts 87°
2026-04-29 07:48 -25.35958 -57.25703 13718 ft 392 kts 87°
2026-04-29 07:48 -25.35953 -57.22665 14466 ft 398 kts 87°
2026-04-29 07:48 -25.35947 -57.19570 15128 ft 407 kts 88°
2026-04-29 07:48 -25.35939 -57.16408 15803 ft 415 kts 88°
2026-04-29 07:49 -25.35931 -57.13192 16503 ft 422 kts 88°
2026-04-29 07:49 -25.35922 -57.09914 17171 ft 430 kts 88°
2026-04-29 07:49 -25.35912 -57.06620 17780 ft 440 kts 88°
2026-04-29 07:49 -25.35900 -57.03197 18405 ft 448 kts 88°
2026-04-29 07:50 -25.35888 -56.99727 18999 ft 454 kts 88°
2026-04-29 07:50 -25.35875 -56.96225 19673 ft 458 kts 87°
2026-04-29 07:50 -25.35862 -56.92687 20339 ft 462 kts 87°
2026-04-29 07:50 -25.35846 -56.89115 20971 ft 467 kts 86°
2026-04-29 07:51 -25.35830 -56.85503 21598 ft 472 kts 86°
2026-04-29 07:51 -25.35812 -56.81857 22195 ft 477 kts 86°
2026-04-29 07:51 -25.35794 -56.78173 22807 ft 481 kts 85°
2026-04-29 07:51 -25.35774 -56.74454 23428 ft 486 kts 85°
2026-04-29 07:52 -25.35754 -56.70696 23922 ft 491 kts 85°
2026-04-29 07:52 -25.35733 -56.66896 24367 ft 496 kts 85°
2026-04-29 07:52 -25.35710 -56.63118 24811 ft 500 kts 84°
2026-04-29 07:52 -25.35802 -56.59195 25267 ft 508 kts 90°
2026-04-29 07:53 -25.36175 -56.55289 25695 ft 514 kts 93°
2026-04-29 07:53 -25.36646 -56.51400 26132 ft 518 kts 94°
2026-04-29 07:53 -25.37157 -56.47444 26537 ft 522 kts 94°
2026-04-29 07:53 -25.37670 -56.43440 26911 ft 527 kts 93°
2026-04-29 07:54 -25.38167 -56.39414 27280 ft 531 kts 93°
2026-04-29 07:54 -25.38644 -56.35350 27639 ft 534 kts 92°
2026-04-29 07:54 -25.39111 -56.31264 27977 ft 539 kts 91°
2026-04-29 07:54 -25.39586 -56.27140 28295 ft 542 kts 91°
2026-04-29 07:55 -25.40048 -56.22985 28687 ft 544 kts 91°
2026-04-29 07:55 -25.40507 -56.18809 29016 ft 547 kts 91°
2026-04-29 07:55 -25.40967 -56.14615 29306 ft 551 kts 91°
2026-04-29 07:55 -25.41431 -56.10396 29586 ft 555 kts 92°
2026-04-29 07:56 -25.41899 -56.06152 29878 ft 558 kts 92°
2026-04-29 07:56 -25.42372 -56.01870 30162 ft 561 kts 92°
2026-04-29 07:56 -25.42844 -55.97625 30421 ft 564 kts 91°
2026-04-29 07:56 -25.43323 -55.93293 30645 ft 567 kts 91°
2026-04-29 07:57 -25.43802 -55.88947 30908 ft 568 kts 91°
2026-04-29 07:57 -25.44278 -55.84594 31200 ft 569 kts 91°
2026-04-29 07:57 -25.44749 -55.80286 31475 ft 570 kts 92°
2026-04-29 07:57 -25.45224 -55.75924 31715 ft 572 kts 91°
2026-04-29 07:58 -25.45699 -55.71537 31998 ft 574 kts 92°
2026-04-29 07:58 -25.46177 -55.67145 32281 ft 575 kts 92°
2026-04-29 07:58 -25.46655 -55.62744 32564 ft 577 kts 93°
2026-04-29 07:58 -25.47133 -55.58318 32837 ft 578 kts 92°
2026-04-29 07:59 -25.47604 -55.53937 33128 ft 580 kts 94°
2026-04-29 07:59 -25.48080 -55.49489 33395 ft 581 kts 93°
2026-04-29 07:59 -25.48559 -55.45011 33665 ft 584 kts 93°
2026-04-29 07:59 -25.49036 -55.40536 33958 ft 585 kts 94°
2026-04-29 08:00 -25.49506 -55.36104 34227 ft 586 kts 94°
2026-04-29 08:00 -25.49981 -55.31616 34557 ft 587 kts 94°
2026-04-29 08:00 -25.50454 -55.27130 34940 ft 584 kts 93°
2026-04-29 08:00 -25.50925 -55.22663 35139 ft 586 kts 93°
2026-04-29 08:01 -25.51872 -55.13617 35201 ft 592 kts 93°
2026-04-29 08:01 -25.52340 -55.09149 35522 ft 589 kts 93°
2026-04-29 08:01 -25.52810 -55.04648 35898 ft 586 kts 93°
2026-04-29 08:02 -25.53274 -55.00180 36265 ft 583 kts 93°
2026-04-29 08:02 -25.53736 -54.95730 36664 ft 581 kts 93°
2026-04-29 08:02 -25.54194 -54.91287 36977 ft 581 kts 93°
2026-04-29 08:02 -25.54651 -54.86823 36966 ft 586 kts 93°
2026-04-29 08:03 -25.55565 -54.77881 36981 ft 585 kts 93°
2026-04-29 08:03 -25.56472 -54.68995 36996 ft 577 kts 93°
2026-04-29 08:04 -25.57365 -54.60157 37002 ft 577 kts 92°
2026-04-29 08:04 -25.58217 -54.51322 36977 ft 577 kts 91°
2026-04-29 08:05 -25.58557 -54.42470 36966 ft 572 kts 85°
2026-04-29 08:05 -25.58506 -54.33716 37054 ft 572 kts 84°
2026-04-29 08:06 -25.58474 -54.24891 37054 ft 573 kts 85°
2026-04-29 08:06 -25.58514 -54.16110 37049 ft 572 kts 85°
2026-04-29 08:07 -25.58574 -54.07266 37043 ft 572 kts 85°
2026-04-29 08:07 -25.58621 -53.98425 37020 ft 572 kts 85°
2026-04-29 08:08 -25.58657 -53.89663 37049 ft 571 kts 85°
2026-04-29 08:08 -25.58687 -53.80836 37052 ft 570 kts 85°
2026-04-29 08:09 -25.58722 -53.72062 37028 ft 572 kts 85°
2026-04-29 08:09 -25.58789 -53.63259 37045 ft 571 kts 85°
2026-04-29 08:10 -25.58859 -53.54460 37054 ft 571 kts 85°
2026-04-29 08:10 -25.58916 -53.45652 37056 ft 571 kts 85°
2026-04-29 08:11 -25.58964 -53.36905 37059 ft 571 kts 85°
2026-04-29 08:11 -25.59008 -53.28102 37055 ft 571 kts 85°
2026-04-29 08:12 -25.59047 -53.19308 37047 ft 570 kts 85°
2026-04-29 08:12 -25.59081 -53.10505 37055 ft 570 kts 85°
2026-04-29 08:13 -25.59109 -53.01713 37055 ft 570 kts 85°
2026-04-29 08:13 -25.59122 -52.92989 37090 ft 568 kts 85°
2026-04-29 08:14 -25.59127 -52.84205 37062 ft 569 kts 85°
2026-04-29 08:14 -25.59128 -52.75464 37033 ft 569 kts 85°
2026-04-29 08:15 -25.59126 -52.66709 37054 ft 567 kts 85°
2026-04-29 08:15 -25.59119 -52.57962 37059 ft 566 kts 85°
2026-04-29 08:16 -25.59106 -52.49238 37046 ft 566 kts 85°
2026-04-29 08:16 -25.59088 -52.40578 37053 ft 565 kts 85°
2026-04-29 08:17 -25.59065 -52.31895 37056 ft 564 kts 85°
2026-04-29 08:17 -25.59037 -52.23196 37066 ft 563 kts 85°
2026-04-29 08:18 -25.59004 -52.14523 37060 ft 563 kts 85°
2026-04-29 08:18 -25.58965 -52.05845 37075 ft 563 kts 85°
2026-04-29 08:19 -25.58921 -51.97187 37073 ft 561 kts 85°
2026-04-29 08:19 -25.58874 -51.88604 37084 ft 560 kts 85°
2026-04-29 08:20 -25.58820 -51.79973 37061 ft 560 kts 85°
2026-04-29 08:20 -25.58762 -51.71348 37091 ft 558 kts 85°
2026-04-29 08:21 -25.58699 -51.62748 37094 ft 557 kts 85°
2026-04-29 08:21 -25.58630 -51.54148 37088 ft 557 kts 85°
2026-04-29 08:22 -25.58558 -51.45618 37097 ft 555 kts 85°
2026-04-29 08:22 -25.58480 -51.37059 37102 ft 555 kts 85°
2026-04-29 08:23 -25.58394 -51.28485 37080 ft 554 kts 85°
2026-04-29 08:23 -25.58304 -51.19981 37068 ft 555 kts 85°
2026-04-29 08:24 -25.58209 -51.11431 37073 ft 555 kts 84°
2026-04-29 08:24 -25.58109 -51.02868 37066 ft 555 kts 84°
2026-04-29 08:25 -25.58007 -50.94362 37059 ft 555 kts 84°
2026-04-29 08:25 -25.57902 -50.85787 37056 ft 555 kts 84°
2026-04-29 08:26 -25.57793 -50.77296 37069 ft 553 kts 84°
2026-04-29 08:26 -25.57698 -50.70199 37066 ft 553 kts 84°
2026-04-29 08:27 -25.57579 -50.61677 37052 ft 552 kts 84°
2026-04-29 08:27 -25.57456 -50.53162 37065 ft 551 kts 84°
2026-04-29 08:28 -25.57327 -50.44699 37069 ft 553 kts 84°
2026-04-29 08:28 -25.57192 -50.36160 37060 ft 553 kts 84°
2026-04-29 08:29 -25.57055 -50.27678 37064 ft 553 kts 84°
2026-04-29 08:29 -25.56912 -50.19146 37043 ft 553 kts 84°
2026-04-29 08:30 -25.56703 -50.06434 37064 ft 551 kts 85°
2026-04-29 08:31 -25.56394 -49.97970 37069 ft 548 kts 82°
2026-04-29 08:31 -25.55956 -49.89556 37060 ft 547 kts 83°
2026-04-29 08:32 -25.55604 -49.81139 37074 ft 546 kts 83°
2026-04-29 08:32 -25.55248 -49.72745 37062 ft 545 kts 83°
2026-04-29 08:33 -25.54874 -49.64389 37067 ft 546 kts 82°
2026-04-29 08:33 -25.54488 -49.55974 37077 ft 546 kts 83°
2026-04-29 08:34 -25.54153 -49.47592 37072 ft 546 kts 83°
2026-04-29 08:34 -25.53821 -49.39199 37090 ft 546 kts 83°
2026-04-29 08:35 -25.53571 -49.30788 37103 ft 546 kts 84°
2026-04-29 08:35 -25.53357 -49.22388 37095 ft 545 kts 84°
2026-04-29 08:36 -25.52901 -49.14076 37097 ft 539 kts 76°
2026-04-29 08:36 -25.51479 -49.05945 37086 ft 536 kts 73°
2026-04-29 08:37 -25.49987 -48.97867 37091 ft 536 kts 73°
2026-04-29 08:37 -25.48590 -48.89735 37052 ft 535 kts 74°
2026-04-29 08:38 -25.47225 -48.81699 37075 ft 534 kts 74°
2026-04-29 08:38 -25.45839 -48.73601 37088 ft 536 kts 73°
2026-04-29 08:39 -25.44427 -48.65458 37062 ft 538 kts 73°
2026-04-29 08:39 -25.43006 -48.57377 37055 ft 538 kts 73°
2026-04-29 08:40 -25.41576 -48.49241 37047 ft 538 kts 73°
2026-04-29 08:40 -25.40152 -48.41121 37034 ft 537 kts 73°
2026-04-29 08:41 -25.38740 -48.33049 37041 ft 537 kts 73°
2026-04-29 08:41 -25.37311 -48.24926 37043 ft 536 kts 73°
2026-04-29 08:42 -25.35872 -48.16821 37040 ft 535 kts 73°
2026-04-29 08:42 -25.34443 -48.08795 37042 ft 535 kts 73°
2026-04-29 08:43 -25.33002 -48.00709 37027 ft 534 kts 73°
2026-04-29 08:43 -25.31583 -47.92686 37040 ft 534 kts 74°
2026-04-29 08:44 -25.30175 -47.84621 37040 ft 534 kts 74°
2026-04-29 08:44 -25.28733 -47.76570 37030 ft 533 kts 73°
2026-04-29 08:45 -25.27293 -47.68564 37032 ft 533 kts 73°
2026-04-29 08:45 -25.25837 -47.60521 37030 ft 533 kts 73°
2026-04-29 08:46 -25.24350 -47.52546 37018 ft 532 kts 73°
2026-04-29 08:46 -25.22859 -47.44547 37029 ft 531 kts 73°
2026-04-29 08:47 -25.21393 -47.36542 37043 ft 531 kts 73°
2026-04-29 08:47 -25.19936 -47.28533 37036 ft 531 kts 73°
2026-04-29 08:48 -25.18481 -47.20574 37029 ft 531 kts 73°
2026-04-29 08:48 -25.17009 -47.12570 37026 ft 531 kts 73°
2026-04-29 08:49 -25.15531 -47.04555 37033 ft 530 kts 73°
2026-04-29 08:49 -25.13813 -46.96742 37010 ft 523 kts 64°
2026-04-29 08:50 -25.10742 -46.89574 37029 ft 514 kts 56°
2026-04-29 08:50 -25.07498 -46.82535 37033 ft 515 kts 57°
2026-04-29 08:51 -25.04318 -46.75430 37033 ft 515 kts 57°
2026-04-29 08:51 -25.01185 -46.68365 37030 ft 515 kts 57°
2026-04-29 08:52 -24.98013 -46.61259 37031 ft 515 kts 57°
2026-04-29 08:52 -24.94849 -46.54195 37025 ft 515 kts 57°
2026-04-29 08:53 -24.91671 -46.47105 37029 ft 515 kts 57°
2026-04-29 08:53 -24.88510 -46.40061 37027 ft 515 kts 57°
2026-04-29 08:54 -24.85326 -46.32977 37019 ft 515 kts 57°
2026-04-29 08:54 -24.82142 -46.25900 37027 ft 515 kts 57°
2026-04-29 08:55 -24.78982 -46.18890 37027 ft 515 kts 57°
2026-04-29 08:55 -24.75796 -46.11833 37031 ft 514 kts 57°
2026-04-29 08:56 -24.72600 -46.04767 37030 ft 515 kts 57°
2026-04-29 08:56 -24.69400 -45.97699 37030 ft 515 kts 57°
2026-04-29 08:57 -24.66221 -45.90691 37028 ft 514 kts 58°
2026-04-29 08:57 -24.63023 -45.83651 37031 ft 514 kts 58°
2026-04-29 08:58 -24.59839 -45.76652 37021 ft 514 kts 58°
2026-04-29 08:58 -24.56632 -45.69613 37032 ft 513 kts 58°
2026-04-29 08:59 -24.53444 -45.62628 37031 ft 513 kts 58°
2026-04-29 08:59 -24.50242 -45.55622 37027 ft 512 kts 58°
2026-04-29 09:00 -24.47031 -45.48606 37035 ft 512 kts 58°
2026-04-29 09:00 -24.43853 -45.41675 37037 ft 512 kts 58°
2026-04-29 09:01 -24.40644 -45.34687 37030 ft 512 kts 58°
2026-04-29 09:01 -24.37441 -45.27720 37035 ft 511 kts 58°
2026-04-29 09:02 -24.34238 -45.20764 37031 ft 511 kts 58°
2026-04-29 09:02 -24.31032 -45.13813 37036 ft 510 kts 58°
2026-04-29 09:03 -24.27828 -45.06875 37034 ft 509 kts 58°
2026-04-29 09:03 -24.24644 -44.99991 37035 ft 509 kts 58°
2026-04-29 09:04 -24.21436 -44.93065 37035 ft 508 kts 58°
2026-04-29 09:04 -24.18234 -44.86163 37035 ft 507 kts 58°
2026-04-29 09:05 -24.15055 -44.79315 37037 ft 507 kts 58°
2026-04-29 09:05 -24.11695 -44.72554 37028 ft 500 kts 49°
2026-04-29 09:06 -24.07076 -44.67018 37036 ft 484 kts 31°
2026-04-29 09:06 -24.01795 -44.62533 37022 ft 483 kts 31°
2026-04-29 09:07 -23.96484 -44.57996 37036 ft 484 kts 31°
2026-04-29 09:07 -23.91190 -44.53426 37040 ft 485 kts 32°
2026-04-29 09:08 -23.85922 -44.48863 37023 ft 486 kts 32°
2026-04-29 09:08 -23.80601 -44.44256 37035 ft 487 kts 32°
2026-04-29 09:09 -23.75310 -44.39682 36970 ft 488 kts 32°
2026-04-29 09:09 -23.72625 -44.37367 36266 ft 492 kts 32°
2026-04-29 09:09 -23.69943 -44.35052 35503 ft 489 kts 32°
2026-04-29 09:09 -23.67270 -44.32745 34631 ft 490 kts 33°
2026-04-29 09:10 -23.64589 -44.30435 33670 ft 492 kts 33°
2026-04-29 09:10 -23.61897 -44.28116 32651 ft 493 kts 33°
2026-04-29 09:10 -23.59214 -44.25805 31637 ft 492 kts 33°
2026-04-29 09:10 -23.56523 -44.23489 30564 ft 492 kts 33°
2026-04-29 09:11 -23.53828 -44.21170 29305 ft 493 kts 33°
2026-04-29 09:11 -23.51163 -44.18879 28010 ft 493 kts 33°
2026-04-29 09:11 -23.48468 -44.16563 26790 ft 492 kts 33°
2026-04-29 09:11 -23.45802 -44.14271 25860 ft 484 kts 33°
2026-04-29 09:12 -23.43177 -44.12014 24934 ft 477 kts 33°
2026-04-29 09:12 -23.40582 -44.09785 24006 ft 471 kts 33°
2026-04-29 09:12 -23.38011 -44.07579 22961 ft 466 kts 33°
2026-04-29 09:12 -23.35514 -44.05439 21995 ft 459 kts 33°
2026-04-29 09:13 -23.33015 -44.03299 21062 ft 451 kts 33°
2026-04-29 09:13 -23.30567 -44.01203 20173 ft 444 kts 34°
2026-04-29 09:13 -23.28972 -43.99838 19597 ft 439 kts 34°
2026-04-29 09:13 -23.26576 -43.97791 18697 ft 434 kts 34°
2026-04-29 09:14 -23.24207 -43.95766 17744 ft 429 kts 34°
2026-04-29 09:14 -23.21876 -43.93776 16828 ft 423 kts 35°
2026-04-29 09:14 -23.19576 -43.91812 15935 ft 416 kts 35°
2026-04-29 09:14 -23.17337 -43.89901 15093 ft 410 kts 36°
2026-04-29 09:15 -23.15102 -43.87995 14252 ft 405 kts 36°
2026-04-29 09:15 -23.12896 -43.86114 13341 ft 401 kts 37°
2026-04-29 09:15 -23.10714 -43.84254 12548 ft 395 kts 37°
2026-04-29 09:15 -23.08588 -43.82440 12106 ft 382 kts 37°
2026-04-29 09:16 -23.06520 -43.80678 11276 ft 380 kts 37°
2026-04-29 09:16 -23.04450 -43.78915 10878 ft 367 kts 37°
2026-04-29 09:16 -23.02488 -43.77244 10668 ft 349 kts 37°
2026-04-29 09:16 -23.00623 -43.75657 10505 ft 333 kts 37°
2026-04-29 09:17 -22.98862 -43.74158 10372 ft 318 kts 37°
2026-04-29 09:17 -22.97152 -43.72704 10237 ft 306 kts 37°
2026-04-29 09:17 -22.95510 -43.71308 10114 ft 294 kts 37°
2026-04-29 09:17 -22.93923 -43.69959 9968 ft 284 kts 38°
2026-04-29 09:18 -22.92372 -43.68642 9617 ft 282 kts 38°
2026-04-29 09:18 -22.90832 -43.67333 9273 ft 281 kts 37°
2026-04-29 09:18 -22.89296 -43.66028 8935 ft 279 kts 37°
2026-04-29 09:18 -22.87772 -43.64735 8601 ft 277 kts 37°
2026-04-29 09:19 -22.86276 -43.63465 8266 ft 276 kts 37°
2026-04-29 09:19 -22.84765 -43.62182 7931 ft 275 kts 37°
2026-04-29 09:19 -22.83257 -43.60902 7603 ft 274 kts 37°
2026-04-29 09:19 -22.81755 -43.59629 7264 ft 273 kts 37°
2026-04-29 09:20 -22.80257 -43.58359 6929 ft 273 kts 37°
2026-04-29 09:20 -22.78761 -43.57092 6633 ft 273 kts 37°
2026-04-29 09:20 -22.77380 -43.55733 6363 ft 267 kts 53°
2026-04-29 09:20 -22.76596 -43.53966 6021 ft 259 kts 66°
2026-04-29 09:21 -22.75914 -43.52188 5648 ft 252 kts 65°
2026-04-29 09:21 -22.75239 -43.50455 5269 ft 246 kts 65°
2026-04-29 09:21 -22.74579 -43.48777 4951 ft 236 kts 64°
2026-04-29 09:21 -22.73951 -43.47180 4549 ft 225 kts 64°
2026-04-29 09:22 -22.73351 -43.45664 4187 ft 213 kts 64°
2026-04-29 09:22 -22.72780 -43.44220 3826 ft 205 kts 65°
2026-04-29 09:22 -22.72220 -43.42809 3470 ft 202 kts 65°
2026-04-29 09:22 -22.71803 -43.41365 3118 ft 201 kts 88°
2026-04-29 09:23 -22.72227 -43.39981 2947 ft 191 kts 123°
2026-04-29 09:23 -22.72945 -43.38805 2681 ft 186 kts 123°
2026-04-29 09:23 -22.73673 -43.37665 2455 ft 182 kts 125°
2026-04-29 09:23 -22.74405 -43.36561 2221 ft 179 kts 126°
2026-04-29 09:24 -22.75128 -43.35478 1988 ft 177 kts 126°
2026-04-29 09:24 -22.75845 -43.34407 1760 ft 174 kts 126°
2026-04-29 09:24 -22.76533 -43.33378 1543 ft 163 kts 126°
2026-04-29 09:24 -22.77159 -43.32443 1340 ft 148 kts 126°
2026-04-29 09:25 -22.77737 -43.31578 1136 ft 136 kts 126°
2026-04-29 09:25 -22.78289 -43.30753 981 ft 135 kts 126°
2026-04-29 09:25 -22.78834 -43.29938 817 ft 132 kts 126°
2026-04-29 09:25 -22.79371 -43.29136 675 ft 132 kts 126°
2026-04-29 09:26 -22.79911 -43.28329 508 ft 132 kts 126°
2026-04-29 09:26 -22.80453 -43.27530 341 ft 132 kts 127°
2026-04-29 09:26 -22.81003 -43.26726 182 ft 133 kts 125°
2026-04-29 09:26 -22.81544 -43.25913 31 ft 132 kts 125°
2026-04-29 09:27 -22.81999 -43.25226 27 ft 83 kts 126°
2026-04-29 09:27 -22.82209 -43.24911 25 ft 22 kts 126°
2026-04-29 09:27 -22.82303 -43.24764 29 ft 24 kts 119°
2026-04-29 09:27 -22.82355 -43.24596 29 ft 23 kts 101°
2026-04-29 09:28 -22.82344 -43.24460 30 ft 14 kts 17°
2026-04-29 09:28 -22.82279 -43.24532 25 ft 14 kts 306°
2026-04-29 09:28 -22.82219 -43.24621 28 ft 15 kts 306°
2026-04-29 09:28 -22.82155 -43.24717 30 ft 16 kts 309°
2026-04-29 09:29 -22.82057 -43.24691 28 ft 17 kts 36°
2026-04-29 09:29 -22.81845 -43.24578 27 ft 17 kts 36°
2026-04-29 09:29 -22.81748 -43.24503 27 ft 17 kts 36°
2026-04-29 09:30 -22.81683 -43.24486 28 ft 9 kts 346°
2026-04-29 09:30 -22.81621 -43.24504 27 ft 7 kts 345°
2026-04-29 09:30 -22.81604 -43.24509 30 ft 0 kts 345°
2026-04-29 09:30 -22.81597 -43.24511 30 ft 0 kts 345°